OBJECT B, 66054

Orbit data source: Space-Track

You're viewing an Uncataloged Satellite

Recently launched and/or uncataloged satellites may have evolving metadata. Metadata may include but not limited to: Owner, Maufacturer, Bus, Motor, and Mission.

OBJECT B, 66054 is a satellite in SSO that was launched on Sun, 19 Oct 2025 UTC via a LIJIAN-1 launch vehicle from the Jiuquan Satellite Launch Center, China (JSC). Unknown objects in Earth's orbit typically refer to objects detected orbiting the Earth but have not yet been identified or cataloged. These objects could be anything from previously untracked satellites, spent rocket stages, debris from satellite collisions, or even natural meteoroids temporarily captured by Earth's gravity.

Loading next visibility...
Identifier
66054, 2025-234B
Orbit
SSO
Country
Flag of TBDTBD
Related business
None
Manufacturer
Unknown
Mission
Operational Commercial Radar Imaging
Bus & Motor
Unknown
Mass
Unknown
Launch date (UTC)
2025-10-19 (5 months ago)
Launch vehicle
LIJIAN-1
Launch site
Jiuquan Satellite Launch Center, China (JSC)
Object type
Unknown
Shape & HBR
Box + 3 Pan, 1.7 m
Radar Cross Section
3.533 m²

Expand to show TLE details & history
Last TLE update: 9 hours ago

TLE from 9 hours ago
0 OBJECT B
1 66054U 25234B   26094.23510234  .00010028  00000-0  46361-3 0  9992
2 66054  97.4811 164.0381 0010851   0.8450 359.2802 15.20314277 25400
Epoch: 2026-04-04T05:38Z
TLE epoch observation values (Epoch: 2026-04-04T05:38:32.842Z)
Latitude
0.00004°
Longitude
-113.15654°
Altitude
500.511 km
Speed
7.618 km/s
True Right ascension
10h 56m 09s
True Declination
0° 00' 00"
Sunlit
Object was in full shadow at epoch
Visualization orbit readout
Latitude
Unknown
Longitude
Unknown
Altitude
Unknown
Speed
Unknown
Apparent Right ascension
Unknown
Apparent Declination
Unknown
Sunlit
N/A
Visualization observer readout
Local Sidereal Time
20:16:57
Azimuth
Unknown
Elevation
Unknown
Doppler factor
Unknown
Orbital elements
Apogee altitude
509.326 km
Perigee altitude
494.395 km
Semi-major axis
6,879.998 km
Eccentricity
0.00109
Inclination
97.4811°
RAAN
164.0381°
Arg. of periapsis
0.845°
True anomaly
359.27864°
Mean anomaly
359.2802°
Eccentric anomaly
359.27942°
Mean motion
3.8033 °/min
Orbital period
94.65 mins
BSTAR
0.00046361
Loading maneuver chart data...
Computing Atmospheric mass density...
Loading historical data...
Loading historical data...
Loading historical data...
Loading historical data...
Loading historical data...
Loading historical data...
Loading historical data...
Other satellites on launch #234 in the year 2025 (2025-10-19 UTC)

Documentation

Showing up to 5 results
|